sat.trackr.live / text

‹ back to catalog

STARLINK-2139

NORAD 48554 · 2021-041B

PAYLOAD ACTIVE UNKNOWN

§ Identity

Operator
Country
US
Launch date
2021-05-15
Launch site
AFETR
Launch vehicle
Mass (kg)
RCS (m²)

Purposes: comms

External: N2YO · Heavens-Above · Gunter

§ Orbital elements

Epoch: 2026-09-19T16:07:35.112288Z

Period
94.01 min
Inclination
53.1612°
Eccentricity
0.0001220
Mean motion
15.31699277 rev/d
Perigee alt
469.9 km
Apogee alt
471.6 km
Semi-major
6,848.9 km
B*
3.2752e-5
RAAN
303.9500°
Arg perigee
68.0167°
Mean anomaly
292.0964°
Rev number
29,500

§ Raw data

STARLINK-21391 48554U 21041B   26262.67193417  .00000651  00000+0  32752-4 0  99942 48554  53.1612 303.9500 0001220  68.0167 292.0964 15.31699277295007

JSON: /api/v1/satellites/48554 · /tle

For live sub-satellite position, see the globe view (requires WebGL).

§ Visibility from observer

Set your observer location to see the next 7 days of passes ≥ 10°. The values pass through the URL so the page stays shareable.

No JS? Fill the form by hand. The geolocation button needs JavaScript.